Wind_Speed
24 24 25 25 25 25 25 25 24 24 25 24 23 21 21 21 21 22 22 23 23 23 23 23 24 24 24 24 25 25 24 24 24 24 24 23 24 24 23 23 22 22 22 21
24 24 24 25 25 25 25 25 24 24 24 24 23 22 22 22 22 22 22 23 23 23 23 24 24 25 25 25 26 25 25 25 24 24 24 23 23 23 23 22 22 22 22 21
23 24 24 25 25 25 25 25 24 24 24 23 23 23 23 23 23 23 23 23 24 24 24 25 25 26 26 25 24 24 25 25 25 24 24 23 22 23 23 23 23 23 22 22
23 23 25 25 25 25 25 25 24 24 24 23 22 22 22 22 22 22 23 23 24 24 24 24 25 25 25 24 25 25 25 26 25 24 23 22 22 22 22 23 22 22 22 22
23 23 24 24 23 23 24 24 24 24 23 22 21 21 21 21 22 22 22 23 23 24 24 23 23 24 25 25 25 25 25 25 24 24 24 24 24 23 22 22 22 21 21 22
22 22 23 23 22 22 22 24 23 22 22 22 21 21 20 21 21 21 22 23 23 24 24 24 24 24 24 24 24 25 25 25 25 25 25 25 25 25 23 22 22 22 22 22
21 22 22 22 21 21 23 23 23 22 22 21 21 21 21 21 21 21 22 22 23 23 24 24 24 24 25 25 25 26 26 26 26 26 26 26 25 25 25 24 23 23 22 22
21 21 21 21 21 22 23 23 23 22 21 21 21 22 21 21 21 21 21 22 22 22 23 23 24 24 24 25 25 26 26 27 27 27 26 26 26 26 25 25 24 24 23 23
21 22 21 21 22 22 22 22 23 22 22 22 22 22 22 21 21 21 21 22 22 22 22 23 24 24 25 25 26 26 26 26 27 26 26 26 25 25 25 25 24 23 23 23
22 21 21 22 22 22 22 22 22 22 23 22 21 22 22 22 22 22 22 23 23 23 23 23 24 25 25 25 25 26 26 26 26 26 26 26 25 24 25 25 24 23 23 23
21 21 21 21 21 21 22 22 22 22 22 22 21 22 22 22 23 23 22 22 23 23 24 24 25 25 25 26 25 25 25 25 24 24 25 24 24 24 24 24 24 24 24 24
20 20 20 20 21 21 22 22 22 23 23 23 23 23 23 23 23 23 23 22 22 22 22 23 24 24 25 24 24 24 24 24 24 24 24 23 23 23 23 23 23 22 23 23
20 20 21 20 21 22 22 23 23 24 24 24 24 24 24 24 23 23 23 23 23 23 23 23 23 24 24 23 23 22 23 23 22 23 23 23 23 23 22 21 21 20 21 21
19 20 20 21 21 22 23 23 24 24 24 24 25 25 24 24 23 22 22 23 23 22 22 22 22 22 22 22 22 22 23 23 22 22 22 22 22 22 22 22 21 21 21 21
19 20 20 21 21 22 23 23 24 24 25 25 25 25 24 23 23 23 22 22 22 22 22 21 20 21 22 22 22 22 22 22 22 22 22 22 22 21 21 21 21 21 21 21
17 18 20 21 22 23 23 23 24 24 25 24 25 25 24 24 23 22 22 22 22 22 22 22 22 22 21 22 22 23 23 23 24 24 24 24 23 23 22 22 22 21 20 21
18 18 19 20 21 23 23 23 23 23 24 24 24 24 24 24 23 22 23 22 22 22 22 22 21 22 21 21 22 23 24 24 24 24 24 24 24 24 23 23 22 22 22 21
17 18 18 19 19 20 22 23 23 23 23 23 23 23 23 22 22 22 23 22 21 21 22 22 21 21 21 21 21 22 23 23 24 23 23 23 23 23 22 22 22 22 22 22
17 17 18 18 19 19 20 20 21 22 22 22 22 22 22 21 21 21 21 20 20 21 21 21 21 21 21 21 21 21 22 22 22 22 22 22 22 22 22 22 22 22 22 22
15 16 16 16 16 17 19 19 20 20 21 21 20 20 20 20 20 20 20 19 19 20 20 20 20 20 20 21 21 21 21 21 22 22 22 22 22 22 22 22 22 22 22 22
15 15 15 15 15 16 17 18 18 18 19 19 19 19 19 19 19 19 19 19 19 19 19 20 20 20 20 20 20 20 20 20 21 22 22 21 22 22 21 21 21 22 22 22
16 15 15 15 16 16 16 16 16 17 17 18 18 18 18 18 18 19 18 19 19 20 20 20 19 19 20 19 19 19 20 20 21 21 21 21 21 20 20 20 21 21 22 23
16 16 16 16 16 16 15 15 16 16 17 17 18 18 18 18 18 18 18 19 19 19 19 20 20 19 19 20 20 21 21 21 21 21 20 20 20 20 20 20 20 21 21 22
17 17 16 16 16 16 16 15 15 15 16 16 16 17 18 18 18 18 18 18 19 19 19 19 19 19 19 19 20 20 20 20 20 19 19 19 19 20 21 21 21 22 22 22
17 17 17 16 16 16 16 16 15 15 15 15 15 16 17 17 17 18 18 18 19 18 18 18 18 18 18 18 18 19 19 19 19 18 18 19 20 21 22 23 23 22 23 23
17 17 16 15 15 15 15 15 16 16 16 15 15 16 16 17 17 17 17 17 18 18 17 17 17 17 17 17 17 17 17 17 17 18 18 19 20 21 22 22 23 23 24 24
16 15 15 15 15 16 16 16 16 16 16 15 15 15 15 16 16 16 17 17 17 17 16 16 16 16 16 17 16 16 17 17 18 18 19 19 20 21 21 22 23 24 24 24
Wind_Direction
245 246 248 250 250 252 254 255 259 261 264 266 264 261 261 260 257 257 256 256 256 256 257 258 258 260 262 261 262 262 262 264 267 268 269 270 271 272 275 276 275 275 273 272
247 246 248 249 250 251 254 257 258 261 265 266 264 263 262 258 257 258 257 256 257 257 258 259 261 262 263 262 262 261 262 264 266 267 268 271 271 272 273 275 274 273 270 270
248 248 249 249 249 251 254 254 256 259 262 266 268 266 263 260 258 257 258 259 259 260 260 261 261 262 263 263 264 264 263 264 265 265 268 269 271 272 273 274 274 273 271 269
249 250 250 249 250 250 252 253 255 259 262 265 268 269 265 263 261 257 258 260 261 261 263 263 263 262 261 262 262 262 263 264 264 265 266 268 271 275 275 274 273 272 272 270
249 251 252 251 251 250 252 252 253 256 260 264 268 267 264 263 263 259 259 260 262 262 261 262 262 261 261 262 263 263 264 264 262 263 265 267 268 272 276 275 273 271 273 272
250 249 252 251 252 251 251 251 252 256 259 263 266 265 264 264 262 260 261 262 262 262 261 261 262 261 262 263 263 263 265 265 264 264 265 267 268 270 271 274 271 270 270 271
249 249 251 253 251 250 250 252 254 256 259 262 263 264 266 265 264 263 263 264 263 262 262 262 262 262 264 265 263 262 263 264 264 264 265 266 269 271 271 272 271 271 270 270
248 248 251 252 251 250 251 253 255 257 259 262 263 265 266 266 266 263 263 264 264 263 262 262 261 262 263 264 263 261 262 263 264 264 264 266 268 268 270 271 271 270 270 270
248 249 251 252 252 251 253 254 256 259 261 264 265 264 264 265 265 263 263 263 262 263 263 262 260 261 261 261 261 262 263 263 263 263 263 266 265 266 267 269 270 268 269 270
248 249 251 252 253 253 253 255 256 259 262 265 266 266 266 265 264 264 264 262 261 262 262 261 260 260 262 262 262 262 263 262 262 263 263 264 264 266 267 269 269 268 269 270
251 252 251 250 252 253 254 255 256 259 261 264 266 267 268 268 267 266 264 262 261 261 259 259 259 260 261 261 261 261 261 262 262 265 265 265 266 268 269 270 268 268 269 271
250 251 251 252 252 254 256 256 257 259 261 262 264 266 268 269 267 267 266 263 261 260 260 259 258 257 259 260 261 261 261 261 263 264 267 268 268 269 271 272 271 270 270 270
250 249 250 253 254 255 256 256 257 259 261 262 264 266 268 268 267 267 266 263 262 261 262 261 261 260 258 259 260 260 261 262 262 264 267 268 270 269 269 271 270 271 271 270
253 251 252 253 255 256 257 258 259 261 262 263 265 267 268 268 265 264 264 263 262 262 259 258 260 260 259 258 258 258 260 263 264 266 268 269 271 272 269 269 269 270 271 270
255 253 254 256 255 257 259 261 262 262 263 265 266 266 267 265 263 264 263 263 262 260 258 257 258 259 260 261 262 262 263 265 267 268 270 273 273 274 272 269 270 272 274 272
258 259 259 259 259 258 260 262 263 263 262 262 263 263 263 264 263 264 263 263 260 258 257 256 257 258 261 263 265 267 268 269 268 270 271 274 274 274 272 272 272 273 274 274
264 265 263 263 261 261 260 260 260 261 261 260 262 263 262 262 262 262 262 261 258 257 256 256 257 260 262 263 265 268 268 269 269 269 271 272 272 273 273 271 270 270 271 272
266 266 266 266 264 264 263 263 264 264 264 263 263 263 262 263 263 261 261 259 259 258 257 257 259 261 263 265 267 268 269 269 269 270 271 272 272 274 275 271 268 269 270 270
266 269 271 271 267 266 266 266 267 267 266 265 264 264 264 263 263 262 259 259 259 259 260 261 263 265 266 268 269 270 270 269 270 271 273 273 273 273 274 274 272 271 272 273
268 269 270 271 270 269 268 267 268 268 266 265 263 263 264 264 263 261 259 259 258 260 261 262 264 267 269 271 272 273 273 271 270 271 273 274 274 273 273 273 273 273 273 273
269 272 273 272 271 271 269 269 269 268 267 267 265 263 262 262 261 261 260 258 259 262 263 264 266 269 271 272 273 274 274 273 273 273 275 274 274 273 274 274 273 274 274 275
266 269 272 272 272 273 274 273 270 268 267 267 266 263 261 262 263 263 261 260 262 264 265 266 269 271 272 273 273 275 275 275 275 276 276 274 273 272 272 274 275 275 276 278
263 267 270 271 273 273 275 275 271 269 269 268 265 263 263 264 265 263 260 260 261 262 263 266 269 272 272 272 272 274 275 276 276 276 275 275 273 271 273 275 277 279 280 280
264 267 269 270 272 273 274 275 272 271 272 273 269 265 262 262 262 262 262 263 264 264 264 266 268 269 270 270 271 273 274 275 276 275 275 273 272 273 274 276 278 279 280 281
266 269 270 269 270 271 271 272 274 275 275 275 272 268 264 261 261 262 262 264 266 268 266 267 267 267 268 268 270 272 273 274 275 275 275 275 274 275 277 278 277 278 279 280
265 267 267 265 266 267 268 270 272 274 274 276 276 273 268 263 263 264 264 265 267 268 268 268 266 266 266 266 269 272 275 276 276 277 277 278 278 279 280 279 278 279 279 280
262 264 265 263 265 266 267 269 271 272 272 274 276 275 271 266 264 265 265 265 267 268 269 269 268 266 266 267 269 272 274 276 278 280 282 283 284 284 283 282 282 281 280 281
Height
5775 5776 5778 5780 5781 5783 5784 5786 5787 5788 5787 5787 5787 5788 5788 5789 5789 5790 5790 5791 5791 5792 5793 5793 5794 5794 5794 5795 5795 5795 5795 5796 5796 5796 5795 5794 5794 5793 5792 5791 5790 5789 5788 5787
5768 5769 5771 5772 5774 5776 5778 5779 5780 5780 5780 5780 5780 5781 5781 5782 5783 5783 5783 5784 5785 5786 5786 5787 5787 5787 5788 5788 5788 5788 5788 5789 5789 5789 5788 5788 5786 5786 5785 5784 5783 5782 5782 5781
5761 5762 5763 5765 5767 5769 5771 5772 5773 5773 5774 5773 5774 5774 5774 5775 5775 5776 5777 5777 5778 5779 5779 5780 5780 5780 5781 5781 5781 5781 5781 5782 5782 5782 5782 5781 5780 5779 5778 5777 5776 5775 5775 5775
5754 5756 5757 5760 5760 5761 5762 5764 5765 5766 5766 5767 5767 5767 5767 5767 5768 5768 5769 5770 5771 5772 5772 5772 5772 5772 5773 5774 5774 5774 5774 5775 5775 5775 5775 5775 5774 5773 5772 5771 5770 5769 5769 5768
5748 5749 5750 5752 5753 5754 5756 5757 5758 5759 5760 5760 5760 5760 5761 5761 5761 5762 5763 5763 5764 5764 5765 5765 5765 5766 5766 5766 5767 5767 5767 5767 5768 5768 5768 5768 5768 5767 5766 5765 5764 5763 5762 5761
5741 5742 5744 5746 5746 5747 5750 5750 5752 5752 5753 5754 5754 5754 5755 5755 5755 5755 5756 5757 5757 5757 5758 5758 5758 5759 5759 5759 5760 5760 5760 5760 5761 5761 5761 5761 5760 5760 5759 5758 5758 5757 5756 5755
5734 5735 5737 5738 5740 5741 5744 5745 5745 5746 5747 5747 5747 5748 5749 5748 5748 5749 5749 5750 5750 5750 5751 5751 5752 5752 5752 5753 5753 5753 5753 5753 5753 5754 5753 5753 5753 5753 5752 5751 5751 5750 5749 5748
5728 5729 5732 5731 5733 5735 5736 5737 5738 5739 5740 5740 5741 5741 5741 5742 5742 5742 5742 5743 5743 5744 5744 5744 5745 5745 5746 5746 5746 5746 5746 5746 5746 5746 5746 5745 5745 5745 5745 5744 5744 5743 5742 5741
5722 5725 5725 5725 5727 5728 5729 5731 5731 5732 5733 5734 5734 5734 5735 5735 5735 5735 5736 5736 5737 5737 5738 5738 5738 5738 5739 5739 5738 5738 5738 5738 5738 5738 5738 5738 5738 5737 5737 5737 5736 5736 5735 5734
5715 5716 5718 5719 5720 5722 5723 5724 5725 5726 5727 5727 5727 5727 5728 5728 5728 5729 5729 5729 5730 5730 5731 5731 5731 5731 5731 5731 5731 5731 5731 5731 5731 5731 5731 5731 5731 5730 5730 5730 5729 5728 5728 5727
5708 5710 5711 5713 5714 5715 5716 5717 5718 5719 5720 5720 5721 5721 5721 5721 5721 5722 5722 5722 5723 5722 5723 5723 5723 5723 5724 5724 5724 5724 5724 5724 5724 5724 5724 5724 5723 5723 5723 5722 5722 5721 5720 5720
5703 5704 5705 5706 5707 5708 5710 5711 5712 5712 5713 5714 5714 5714 5714 5714 5714 5714 5714 5715 5715 5715 5715 5715 5715 5716 5716 5716 5716 5716 5716 5717 5717 5717 5717 5717 5716 5716 5715 5715 5714 5713 5713 5712
5696 5697 5698 5700 5701 5702 5703 5704 5705 5705 5706 5707 5707 5707 5707 5707 5707 5707 5707 5708 5708 5708 5708 5708 5708 5708 5709 5709 5709 5710 5710 5710 5710 5710 5710 5710 5709 5709 5708 5708 5707 5707 5706 5705
5690 5691 5692 5693 5694 5695 5696 5696 5697 5698 5698 5699 5699 5699 5699 5699 5699 5700 5700 5700 5700 5700 5701 5701 5701 5702 5702 5703 5703 5703 5703 5703 5703 5703 5703 5702 5702 5701 5701 5700 5700 5700 5699 5699
5684 5685 5686 5686 5687 5687 5688 5689 5690 5690 5690 5691 5691 5691 5692 5692 5692 5692 5692 5692 5693 5693 5694 5694 5695 5695 5695 5696 5696 5696 5696 5697 5696 5696 5696 5695 5695 5695 5694 5693 5693 5692 5692 5692
5678 5678 5679 5679 5680 5680 5681 5681 5682 5682 5683 5683 5684 5684 5684 5685 5685 5685 5685 5685 5686 5686 5687 5687 5688 5688 5689 5689 5689 5689 5689 5689 5689 5689 5689 5689 5688 5688 5687 5687 5686 5686 5685 5685
5672 5672 5673 5673 5673 5673 5673 5674 5674 5674 5675 5676 5676 5676 5677 5677 5677 5677 5678 5678 5678 5679 5680 5680 5681 5682 5682 5682 5682 5682 5682 5682 5682 5682 5682 5681 5681 5681 5680 5680 5679 5679 5678 5678
5666 5666 5666 5666 5666 5666 5666 5666 5666 5667 5667 5667 5668 5669 5669 5669 5670 5670 5670 5671 5671 5672 5673 5673 5674 5675 5675 5675 5675 5675 5675 5675 5675 5674 5674 5674 5673 5673 5672 5672 5672 5671 5671 5671
5660 5660 5660 5660 5660 5660 5659 5659 5659 5659 5660 5660 5661 5661 5661 5662 5663 5663 5663 5664 5664 5665 5666 5666 5667 5668 5668 5668 5668 5668 5667 5667 5667 5667 5666 5666 5666 5665 5665 5665 5664 5664 5664 5664
5654 5654 5654 5654 5653 5653 5653 5653 5653 5653 5653 5653 5654 5654 5654 5655 5656 5656 5657 5657 5658 5659 5660 5660 5660 5661 5661 5661 5661 5660 5660 5659 5659 5659 5659 5658 5658 5657 5657 5657 5657 5657 5656 5656
5649 5649 5648 5648 5648 5647 5647 5647 5647 5647 5647 5647 5647 5648 5648 5649 5649 5650 5650 5651 5652 5653 5653 5653 5654 5654 5654 5654 5653 5653 5653 5653 5652 5652 5651 5651 5650 5650 5649 5649 5649 5649 5649 5648
5643 5643 5643 5643 5643 5642 5642 5641 5641 5641 5641 5641 5641 5642 5642 5642 5643 5643 5644 5645 5645 5646 5646 5647 5647 5647 5647 5647 5647 5646 5646 5646 5645 5645 5644 5643 5643 5643 5642 5642 5642 5641 5641 5640
5638 5638 5638 5637 5637 5637 5636 5636 5635 5635 5635 5635 5635 5636 5636 5636 5637 5637 5638 5638 5638 5639 5639 5640 5640 5640 5639 5640 5639 5639 5639 5638 5638 5637 5637 5636 5636 5636 5635 5635 5634 5634 5633 5632
5632 5632 5632 5632 5631 5631 5631 5630 5630 5630 5630 5630 5629 5629 5630 5630 5631 5631 5631 5632 5632 5632 5632 5633 5632 5632 5632 5632 5632 5632 5631 5631 5631 5630 5630 5629 5629 5628 5628 5628 5627 5626 5626 5624
5626 5626 5626 5626 5625 5625 5625 5625 5625 5625 5625 5624 5624 5624 5624 5624 5625 5625 5625 5625 5625 5625 5625 5625 5625 5625 5625 5625 5625 5625 5625 5624 5624 5623 5623 5622 5622 5621 5620 5620 5619 5618 5617 5616
5620 5620 5620 5620 5620 5620 5620 5620 5620 5619 5619 5619 5618 5618 5618 5618 5618 5618 5619 5619 5619 5619 5618 5618 5618 5618 5618 5618 5618 5618 5618 5618 5617 5617 5616 5615 5614 5613 5612 5611 5610 5609 5608 5607
5614 5614 5614 5614 5614 5614 5614 5614 5614 5613 5613 5613 5613 5613 5612 5612 5612 5613 5613 5613 5613 5612 5612 5612 5611 5611 5611 5612 5612 5612 5611 5611 5611 5610 5609 5608 5606 5605 5604 5602 5601 5600 5599 5598